Location: Aragüita
(10.0436°N, 67.8028°W)
Time: 11:53:29
(UTC+00:00)

KORONAS-FOTON - Pass Details

Date: 14 April 2024
Orbit: 478 x 497 km, 82.4° (Epoch: 29 May)

Event Time Altitude Azimuth Distance (km) Brightness Sun altitude
Exits shadow 07:50:20 - 89° (E) 1,875 7.4 -36.8°
Enters shadow 09:02:05 -41° 188° (S) 9,102 10.1 -19.9°
Maximum altitude 09:24:57 25° 275° (W) 1,012 4.7 -14.4°
